Miscellaneous Local Product
Issued by NWS North Platte, NE

Home | Current Version | Previous Version | Text Only | Print | Product List | Glossary On
Versions: 1 2 3 4 5 6 7 8 9 10 11 12 13 14 15 16 17 18 19 20 21 22 23 24 25 26 27 28 29 30 31 32 33 34 35 36 37 38 39 40 41 42 43 44 45 46 47 48 49 50
000
AXUS43 KLBF 010310
MISLBF


WESTERN AND NORTH CENTRAL NEBRASKA HOURLY WEATHER ROUNDUP
NATIONAL WEATHER SERVICE NORTH PLATTE NE
1000 PM CDT MON AUG 31 2015

NOTE: "FAIR" INDICATES FEW OR NO CLOUDS BELOW 12,000 FEET WITH NO
SIGNIFICANT WEATHER AND/OR OBSTRUCTIONS TO VISIBILITY.

NOTE: STATIONS NOT REPORTING VARIABLES SUCH AS SKY/WEATHER OR
PRESSURE ARE PROVIDED BY THE NEBRASKA DEPARTMENT OF
ROADS...RAWS...AND APRS NETWORKS...AND ARE NOT UNDER
NATIONAL WEATHER SERVICE QUALITY CONTROL.

...OBSERVATIONS IN AND NEAR THE EASTERN PANHANDLE OF NEBRASKA...

CITY           SKY/WX    TMP DP  RH WIND       PRES   REMARKS
PINE RIDGE     CLOUDY    68  57  68 NE5       29.97R
CHADRON        CLOUDY    71  56  58 W5        29.97R
ALLIANCE       CLOUDY    73  53  49 S12       30.02F
SIDNEY         CLOUDY    71  54  54 NW13      30.09R
CRESCENT LAKE    N/A     70  46  41 W9          N/A
BIG SPRINGS      N/A     72  61  67 CALM        N/A
$$

...OBSERVATIONS IN NORTH CENTRAL NEBRASKA...

CITY           SKY/WX    TMP DP  RH WIND       PRES   REMARKS
VALENTINE      CLOUDY    70  60  70 E6        29.95S
THEDFORD       CLOUDY    75  64  68 CALM      29.98R
AINSWORTH      CLOUDY    71  65  81 CALM      29.97R
O`NEILL        PTCLDY    77  71  82 SE7       29.93R
ORD            CLEAR     75  67  76 SE5       29.92R
BROKEN BOW     PTCLDY    71  67  87 CALM      29.94R
SPRINGVIEW       N/A     72  65  77 CALM        N/A
SARGENT          N/A     72  67  84 CALM        N/A
CHAMBERS         N/A     73  67  81 CALM        N/A
EWING            N/A     72  65  80 CALM        N/A
$$

...OBSERVATIONS IN SOUTHWEST NEBRASKA AND FAR NORTHEAST COLORADO...

CITY           SKY/WX    TMP DP  RH WIND       PRES   REMARKS
WRAY           CLOUDY    79  52  39 N9        29.98R
HOLYOKE        FAIR      75  55  50 N14       30.02R
IMPERIAL       CLOUDY    77  60  55 NE8       29.94R
OGALLALA       CLOUDY    77  58  52 N8        29.97R
NORTH PLATTE   MOCLDY    76  65  68 NE9       29.94R
MCCOOK         PTCLDY    77  62  59 E7        29.89R
LEXINGTON      PTCLDY    73  67  79 E7        29.92R
PAXTON           N/A     79  62  55 NE5         N/A
BRADY            N/A     73  65  77 CALM        N/A
CALLAWAY         N/A     70  67  90 E6          N/A
$$

...OBSERVATIONS IN CENTRAL LINCOLN COUNTY AREA...

CITY           SKY/WX    TMP DP  RH WIND       PRES   REMARKS
N.P. AIRPORT   MOCLDY    76  65  68 NE9       29.94R
N.P. DOWNTOWN    N/A     79  66  64 NE3         N/A
N.P. SOUTHEAST   N/A     78  66  66 CALM        N/A
N.P. HILLCREST   N/A     77  64  63 NE12        N/A
$$

...SOME OBSERVATIONS FROM AROUND THE REGION...

CITY           SKY/WX    TMP DP  RH WIND       PRES   REMARKS
DENVER         PTCLDY    62  54  74 CALM      30.16S
LARAMIE        CLOUDY    53  48  83 S14       30.24F
CHEYENNE       CLOUDY    61  48  62 S3        30.19F
SCOTTSBLUFF    CLOUDY    76  49  38 VRB5      30.04F
RAPID CITY     CLOUDY    65  58  78 SE5       29.97R
PIERRE         MOCLDY    66  61  84 CALM      29.91R
WINNER         FAIR      72  62  71 NE5       29.93R
SIOUX FALLS    PTCLDY    76  68  76 S12       29.90R
OMAHA          CLEAR     75  69  81 SE6       29.92R
GRAND ISLAND   CLEAR     74  68  81 E7        29.92R
KANSAS CITY    CLEAR     76  70  82 S10       29.97R
WICHITA        PTCLDY    79  63  57 SE10      29.96R
HAYS           CLEAR     81  52  36 SE12      29.91R
LIBERAL        PTCLDY    75  48  38 S9        29.96R
GOODLAND       PTCLDY    74  52  46 S9        29.95R
$$



USA.gov is the U.S. government's official web portal to all federal, state and local government web resources and services.